Portage, MI

12:55 PM EDT on July 25, 2016 (GMT -0400)
Kalamazoo-Battle Creek International

Weather History for KAZO - April, 2013

Change the Weather History Date:

Tuesday, April 2, 2013

  Actual Average Record
Temperature  
Mean Temperature 31 °F 44 °F  
Max Temperature 41 °F 54 °F 80 °F (1963)
Min Temperature 20 °F 33 °F 20 °F (2013)
Degree Days  
Heating Degree Days 34 21  
Month to date heating degree days 67 43  
Since 1 July heating degree days 5637 5700  
Cooling Degree Days 0 0  
Month to date cooling degree days 0 0  
Year to date cooling degree days 0 0  
Moisture  
Dew Point 15 °F    
Average Humidity 57    
Maximum Humidity 84    
Minimum Humidity 29    
Precipitation  
Precipitation 0.00 in 0.09 in 1.02 in (1970)
Month to date precipitation T 0.19  
Year to date precipitation 5.34 5.68  
Sea Level Pressure  
Sea Level Pressure 30.22 in    
Wind  
Wind Speed 10 mph (West)    
Max Wind Speed 23 mph    
Max Gust Speed 30 mph    
Visibility 10 miles    
Events      
T = Trace of Precipitation, MM = Missing Value Source: NWS Daily Summary

Daily Weather History Graph

Daily Weather History Graph

Search for Another Location

Airport or City:

Trip Planner

Search our weather history database for the weather conditions in past years. The results will help you decide how hot, cold, wet, or windy it might be!

Date:

Astronomy

Apr. 02, 2013 Rise Set
Actual Time 7:22 AM EDT 8:09 PM EDT
Civil Twilight 6:54 AM EDT 8:37 PM EDT
Nautical Twilight 6:20 AM EDT 9:11 PM EDT
Astronomical Twilight 5:45 AM EDT 9:46 PM EDT
Moon 2:18 AM EDT (4/2) 12:08 PM EDT (4/2)
Length of Visible Light 13h 43m
Length of Day
12h 46m
Waning Gibbous, 56% of the Moon is Illuminated
Apr 2
Waning Gibbous
Apr 3
Last Quarter
Apr 10
New
Apr 18
First Quarter
Apr 25
Full

Hourly Weather History & Observations

Time (EDT) Temp. Windchill Dew Point Humidity Pressure Visibility Wind Dir Wind Speed Gust Speed Precip Events Conditions
12:53 AM 27.0 °F 20.5 °F 19.0 °F 72% 30.16 in 10.0 mi West 5.8 mph - 0.00 in   Overcast
1:53 AM 25.0 °F 17.1 °F 19.0 °F 78% 30.16 in 10.0 mi WSW 6.9 mph - N/A   Overcast
2:53 AM 25.0 °F 18.1 °F 19.9 °F 81% 30.16 in 10.0 mi SW 5.8 mph - N/A   Partly Cloudy
3:53 AM 24.1 °F 17.0 °F 19.9 °F 84% 30.16 in 10.0 mi WSW 5.8 mph - N/A   Clear
4:53 AM 24.1 °F 17.0 °F 19.0 °F 81% 30.17 in 10.0 mi WNW 5.8 mph - N/A   Clear
5:53 AM 23.0 °F - 17.1 °F 78% 30.18 in 10.0 mi Calm Calm - N/A   Clear
6:53 AM 21.0 °F 16.2 °F 18.0 °F 88% 30.20 in 10.0 mi SW 3.5 mph - N/A   Scattered Clouds
7:53 AM 24.1 °F 18.2 °F 19.0 °F 81% 30.22 in 10.0 mi WSW 4.6 mph - N/A   Scattered Clouds
8:53 AM 28.0 °F 21.7 °F 19.9 °F 72% 30.23 in 10.0 mi WSW 5.8 mph - N/A   Partly Cloudy
9:53 AM 32.0 °F 24.8 °F 18.0 °F 56% 30.23 in 10.0 mi WNW 8.1 mph - N/A   Scattered Clouds
10:53 AM 35.1 °F 25.5 °F 14.0 °F 42% 30.23 in 10.0 mi WNW 15.0 mph 25.3 mph N/A   Overcast
11:53 AM 37.0 °F 27.4 °F 12.9 °F 37% 30.24 in 10.0 mi WNW 17.3 mph 25.3 mph N/A   Mostly Cloudy
12:53 PM 37.9 °F 27.6 °F 12.0 °F 35% 30.23 in 10.0 mi WNW 20.7 mph 27.6 mph N/A   Mostly Cloudy
1:53 PM 39.0 °F 30.3 °F 10.9 °F 32% 30.23 in 10.0 mi WNW 16.1 mph 27.6 mph N/A   Scattered Clouds
2:53 PM 39.9 °F 31.4 °F 10.9 °F 31% 30.22 in 10.0 mi West 16.1 mph 23.0 mph N/A   Partly Cloudy
3:53 PM 39.9 °F 30.0 °F 12.0 °F 32% 30.22 in 10.0 mi West 21.9 mph 28.8 mph N/A   Partly Cloudy
4:53 PM 37.9 °F 28.2 °F 10.9 °F 33% 30.22 in 10.0 mi NW 18.4 mph 28.8 mph N/A   Partly Cloudy
5:53 PM 37.9 °F 27.6 °F 9.0 °F 30% 30.24 in 10.0 mi NW 20.7 mph 24.2 mph N/A   Partly Cloudy
6:53 PM 37.0 °F 27.7 °F 9.0 °F 31% 30.25 in 10.0 mi NW 16.1 mph 25.3 mph N/A   Partly Cloudy
7:53 PM 34.0 °F 26.0 °F 10.9 °F 38% 30.27 in 10.0 mi NW 10.4 mph - N/A   Clear
8:53 PM 30.9 °F 22.8 °F 12.9 °F 47% 30.27 in 10.0 mi NW 9.2 mph - N/A   Clear
9:53 PM 27.0 °F 21.6 °F 12.9 °F 56% 30.30 in 10.0 mi NW 4.6 mph - N/A   Clear
10:53 PM 28.0 °F 22.8 °F 14.0 °F 56% 30.30 in 10.0 mi WNW 4.6 mph - N/A   Clear
11:53 PM 27.0 °F 23.0 °F 15.1 °F 61% 30.30 in 10.0 mi West 3.5 mph - N/A   Clear